CZ-6A DEB, 56263

Orbit data source: Space-Track

CZ-6A DEB, 56263 is space debris in SSO originally from a launch on Fri, 11 Nov 2022 UTC launched from the Taiyaun Space Center, China (TSC). Debris objects in space refer to the collection of defunct objects orbiting the Earth. Examples of debris include non-operational satellites, rocket bodies, and fragments generated from explosions, collisions, or faulty payload assembly.

Loading next visibility...
Identifier
56263, 2022-151ACF
Orbit
SSO
Country
Flag of CNCN / PRC
Related business
Manufacturer
SAST
Mission
Spacecraft
Bus & Motor
Unknown
Mass
Unknown
Launch date (UTC)
2022-11-11 (4 years ago)
Launch vehicle
Unknown
Launch site
Taiyaun Space Center, China (TSC)
Object type
Payload
Rocket body
Debris
Shape & HBR
Unknown shape, 0.1 m
Radar Cross Section
Medium (>0.1 m² and <1 m²)

Expand to show TLE details & history
Last TLE update: 3 days ago

TLE from 3 days ago
0 CZ-6A DEB
1 56263U 22151ACF 26170.39345734  .00001220  00000-0  27869-3 0  9997
2 56263  98.4972 212.8771 0115962 265.0817  93.7131 14.53645706171895
Epoch: 2026-06-19T09:26Z
TLE epoch observation values (Epoch: 2026-06-19T09:26:34.714Z)
Latitude
-0.00006°
Longitude
163.60939°
Altitude
723.009 km
Speed
7.491 km/s
True Right ascension
14h 11m 30s
True Declination
0° 00' 00"
Sunlit
Object was in full shadow at epoch
Visualization orbit readout
Latitude
Unknown
Longitude
Unknown
Altitude
Unknown
Speed
Unknown
Apparent Right ascension
Unknown
Apparent Declination
Unknown
Sunlit
N/A
Visualization observer readout
Local Sidereal Time
21:36:21
Azimuth
Unknown
Elevation
Unknown
Doppler factor
Unknown
Orbital elements
Apogee altitude
793.075 km
Perigee altitude
628.664 km
Semi-major axis
7,089.006 km
Eccentricity
0.0116
Inclination
98.4972°
RAAN
212.8771°
Arg. of periapsis
265.0817°
True anomaly
95.03778°
Mean anomaly
93.7131°
Eccentric anomaly
94.37558°
Mean motion
3.63635 °/min
Orbital period
99 mins
BSTAR
0.00027869
Loading maneuver chart data...
Computing Atmospheric mass density...
Loading historical data...
Loading historical data...
Loading historical data...
Loading historical data...
Loading historical data...
Loading historical data...
Loading historical data...

Documentation

Showing up to 5 results
|